Lid_Strength_Index
7 6 6 6 6 7 7 9 8 10 11 12 12 12 12 13 13 13 13 13 13 13 13 13 13 13 13 14 13 14 14 14
8 8 9 9 9 10 10 11 11 12 12 13 13 13 13 13 14 14 14 13 14 13 14 14 14 13 13 14 14 15 15 16
10 10 11 12 12 13 12 13 13 13 14 14 15 15 15 16 16 15 16 15 15 15 15 15 15 15 15 15 16 16 17 17
12 12 13 12 13 13 14 14 14 14 15 15 16 16 16 16 16 16 16 16 16 16 16 16 15 15 15 16 16 17 18 18
13 13 14 14 14 15 15 14 14 15 16 16 16 16 17 17 17 17 17 17 17 16 16 16 16 16 16 16 17 17 18 19
15 15 16 16 16 16 15 15 15 16 17 17 17 17 18 18 18 18 19 18 18 18 18 17 17 16 17 18 19 19 19 19
17 17 18 17 16 16 16 16 16 17 18 18 18 18 19 19 20 20 20 19 18 19 18 18 17 17 17 18 21 21 22 21
20 18 18 18 17 17 18 17 18 18 18 18 19 19 20 20 20 21 22 21 20 19 19 19 18 17 18 18 20 21 22 21
21 19 18 18 18 18 18 19 19 19 19 19 20 20 20 21 21 21 21 21 21 21 20 19 18 17 18 18 19 19 20 20
20 20 19 19 19 19 20 20 21 21 21 21 21 22 22 22 22 21 22 22 22 21 21 20 18 15 16 17 19 19 20 20
21 20 20 21 20 21 21 21 22 22 22 22 22 22 23 22 22 22 21 20 20 20 20 19 19 15 15 17 18 20 20 20
24 25 23 22 22 23 24 24 22 22 22 22 22 22 22 21 21 21 21 21 21 21 20 20 19 18 15 15 18 19 20 21
25 26 25 23 23 24 25 24 23 23 23 22 21 20 20 22 22 22 22 22 22 22 22 20 19 17 16 16 16 17 20 21
25 25 25 24 23 24 23 23 23 24 25 24 23 21 21 22 21 22 22 23 23 23 23 23 20 19 17 17 17 18 20 20
25 26 26 25 25 25 24 24 25 26 25 25 25 24 23 21 21 22 22 23 23 23 24 24 22 20 19 19 20 20 21 24
26 27 27 26 27 27 25 24 24 25 25 25 25 26 26 24 22 22 21 20 23 27 26 25 24 20 18 18 20 21 21 28
27 27 28 28 29 29 29 28 26 26 27 27 27 28 27 28 28 22 20 19 19 19 20 22 19 17 17 18 18 20 21 32
30 30 31 31 32 33 33 31 30 30 29 30 29 30 30 31 31 32 28 23 22 21 20 20 19 19 19 19 21 23 26 39
34 35 37 35 36 38 37 35 34 34 33 33 34 34 34 34 35 37 37 36 32 27 23 22 20 20 21 22 27 33 32 39
38 39 38 37 38 40 39 34 35 33 34 37 38 37 37 37 36 38 39 38 37 37 28 27 23 23 24 25 38 39 33 31